This is the latest recevied weather packets stored in our database for station/object KA0EGE. If no packets are shown the sender has not sent any weather packets the latest 10 day(s).
| Time | Temp. | Humidity | Pressure | Rain* | Wind** | Luminosity | Snow |
|---|---|---|---|---|---|---|---|
| 1777760842 | 22.78° C | 55% | 1015.4 hPa | 0 mm | - | 265 W/m² | - |
| 1777760538 | 22.78° C | 55% | 1015.4 hPa | 0 mm | - | 279 W/m² | - |
| 1777760234 | 22.78° C | 56% | 1015.4 hPa | 0 mm | - | 310 W/m² | - |
| 1777759931 | 22.78° C | 54% | 1015.4 hPa | 0 mm | - | 302 W/m² | - |
| 1777759627 | 22.78° C | 54% | 1015.3 hPa | 0 mm | - | 323 W/m² | - |
| 1777759324 | 22.78° C | 55% | 1015.2 hPa | 0 mm | - | 352 W/m² | - |
| 1777759021 | 22.78° C | 56% | 1015.1 hPa | 0 mm | - | 372 W/m² | - |
| 1777758717 | 22.78° C | 55% | 1015.1 hPa | 0 mm | - | 386 W/m² | - |
| 1777758415 | 23.33° C | 55% | 1015 hPa | 0 mm | - | 226 W/m² | - |
| 1777758112 | 22.78° C | 55% | 1015.1 hPa | 0 mm | - | 443 W/m² | - |
| 1777757809 | 22.78° C | 57% | 1015.1 hPa | 0 mm | - | 187 W/m² | - |
| 1777757506 | 22.78° C | 58% | 1015 hPa | 0 mm | - | 509 W/m² | - |
| 1777757205 | 22.22° C | 58% | 1015.1 hPa | 0 mm | - | 518 W/m² | - |
| 1777756903 | 22.22° C | 57% | 1015 hPa | 0 mm | - | 526 W/m² | - |
| 1777756598 | 23.33° C | 56% | 1014.9 hPa | 0 mm | - | 158 W/m² | - |
| 1777756296 | 23.33° C | 56% | 1015 hPa | 0 mm | - | 549 W/m² | - |
| 1777755993 | 23.33° C | 58% | 1015 hPa | 0 mm | - | 549 W/m² | - |
| 1777755690 | 22.78° C | 57% | 1014.7 hPa | 0 mm | - | 570 W/m² | - |
| 1777755386 | 22.78° C | 57% | 1015 hPa | 0 mm | - | 604 W/m² | - |
| 1777755083 | 22.22° C | 58% | 1015 hPa | 0 mm | - | 121 W/m² | - |
| 1777754780 | 22.22° C | 60% | 1015.1 hPa | 0 mm | - | 658 W/m² | - |
| 1777754478 | 21.67° C | 61% | 1014.9 hPa | 0 mm | - | 710 W/m² | - |
| 1777754175 | 21.67° C | 62% | 1014.8 hPa | 0 mm | - | 255 W/m² | - |
| 1777753872 | 22.22° C | 63% | 1015 hPa | 0 mm | - | 610 W/m² | - |
| 1777753568 | 22.78° C | 62% | 1015 hPa | 0 mm | - | 452 W/m² | - |
* Rain latest hour (hover to see other rain measurements)
** Current wind speed in m/s (hover to see current wind gust speed)